Time,TemperatureF,DewpointF,PressureIn,WindDirection,WindDirectionDegrees,WindSpeedMPH,WindSpeedGustMPH,Humidity,HourlyPrecipIn,Conditions,Clouds,dailyrainin,SoftwareType,DateUTC
2013-09-27 00:02:00,43.5,38.4,30.15,SSE,158,0.0,0.0,82,0.00,SCT,SCT,0.00,WeatherDisplay:10.37,2013-09-27 07:02:00,
2013-09-27 00:17:00,43.5,38.4,30.15,SSE,158,0.0,0.0,82,0.00,SCT,SCT,0.00,WeatherDisplay:10.37,2013-09-27 07:17:00,
2013-09-27 00:32:00,43.5,38.4,30.15,SSE,158,0.0,0.0,82,0.00,SCT,SCT,0.00,WeatherDisplay:10.37,2013-09-27 07:32:00,
2013-09-27 00:47:00,43.4,38.5,30.15,SSE,158,0.0,0.0,83,0.00,SCT,SCT,0.00,WeatherDisplay:10.37,2013-09-27 07:47:00,
2013-09-27 01:02:00,43.3,38.5,30.15,SSE,158,0.0,0.0,83,0.00,CLR,CLR,0.00,WeatherDisplay:10.37,2013-09-27 08:02:00,
2013-09-27 01:17:00,43.5,38.7,30.15,WSW,248,0.0,0.0,83,0.00,CLR,CLR,0.00,WeatherDisplay:10.37,2013-09-27 08:17:00,
2013-09-27 01:32:00,43.6,38.8,30.15,West,273,0.0,0.0,83,0.00,CLR,CLR,0.00,WeatherDisplay:10.37,2013-09-27 08:32:00,
2013-09-27 01:47:00,44.4,39.6,30.14,NNW,338,0.0,0.0,83,0.00,CLR,CLR,0.00,WeatherDisplay:10.37,2013-09-27 08:47:00,
2013-09-27 02:02:00,45.0,40.4,30.14,NNW,338,0.0,0.0,84,0.00,SCT,SCT,0.00,WeatherDisplay:10.37,2013-09-27 09:02:00,
2013-09-27 02:17:00,45.1,40.6,30.14,NNW,339,0.0,0.0,84,0.00,SCT,SCT,0.00,WeatherDisplay:10.37,2013-09-27 09:17:00,
2013-09-27 02:32:00,45.8,41.3,30.14,North,9,0.0,0.0,84,0.00,SCT,SCT,0.00,WeatherDisplay:10.37,2013-09-27 09:32:00,
2013-09-27 02:47:00,46.2,41.7,30.14,NNW,340,0.0,0.0,84,0.00,SCT,SCT,0.00,WeatherDisplay:10.37,2013-09-27 09:47:00,
2013-09-27 03:02:00,46.2,41.7,30.14,NNW,338,0.0,0.0,84,0.00,SCT,SCT,0.00,WeatherDisplay:10.37,2013-09-27 10:02:00,
2013-09-27 03:17:00,46.2,41.7,30.13,NNW,338,0.0,0.0,84,0.00,SCT,SCT,0.00,WeatherDisplay:10.37,2013-09-27 10:17:00,
2013-09-27 03:32:00,46.2,41.7,30.13,WNW,287,0.0,0.0,84,0.00,SCT,SCT,0.00,WeatherDisplay:10.37,2013-09-27 10:32:00,
2013-09-27 03:47:00,46.2,41.7,30.12,East,90,0.0,0.0,84,0.00,SCT,SCT,0.00,WeatherDisplay:10.37,2013-09-27 10:47:00,
2013-09-27 04:02:00,46.2,41.7,30.11,East,90,0.0,0.0,84,0.00,OVC,OVC,0.00,WeatherDisplay:10.37,2013-09-27 11:02:00,
2013-09-27 04:17:00,46.2,41.7,30.11,East,88,0.0,0.0,84,0.00,OVC,OVC,0.00,WeatherDisplay:10.37,2013-09-27 11:17:00,
2013-09-27 04:32:00,46.2,41.7,30.11,East,90,0.0,0.0,84,0.00,OVC,OVC,0.00,WeatherDisplay:10.37,2013-09-27 11:32:00,
2013-09-27 04:47:00,46.6,42.0,30.11,East,84,0.0,0.0,84,0.00,OVC,OVC,0.00,WeatherDisplay:10.37,2013-09-27 11:47:00,
2013-09-27 05:02:00,46.9,42.4,30.10,East,90,0.0,0.0,84,0.00,OVC,OVC,0.00,WeatherDisplay:10.37,2013-09-27 12:02:00,
2013-09-27 05:17:00,47.2,42.6,30.09,East,90,0.0,0.0,84,0.00,OVC,OVC,0.00,WeatherDisplay:10.37,2013-09-27 12:17:00,
2013-09-27 05:32:00,47.7,43.1,30.09,ENE,78,0.0,0.0,84,0.00,OVC,OVC,0.00,WeatherDisplay:10.37,2013-09-27 12:32:00,
2013-09-27 05:47:00,48.2,43.6,30.08,NNE,21,0.0,0.0,84,0.00,OVC,OVC,0.00,WeatherDisplay:10.37,2013-09-27 12:47:00,
2013-09-27 06:02:00,48.6,43.9,30.09,WNW,295,0.0,0.0,84,0.00,OVC,OVC,0.00,WeatherDisplay:10.37,2013-09-27 13:02:00,
2013-09-27 06:17:00,48.9,44.3,30.09,NW,318,0.0,0.0,84,0.00,OVC,OVC,0.00,WeatherDisplay:10.37,2013-09-27 13:17:00,
2013-09-27 06:32:00,49.1,44.5,30.09,SW,215,0.0,0.0,84,0.00,OVC,OVC,0.00,WeatherDisplay:10.37,2013-09-27 13:32:00,
2013-09-27 06:47:00,49.3,44.6,30.09,SSW,199,0.0,0.0,84,0.00,OVC,OVC,0.00,WeatherDisplay:10.37,2013-09-27 13:47:00,
2013-09-27 07:02:00,49.3,44.6,30.09,West,262,0.0,0.0,84,0.00,OVC,OVC,0.00,WeatherDisplay:10.37,2013-09-27 14:02:00,
2013-09-27 07:17:00,49.3,45.0,30.07,SSE,167,0.0,0.0,85,0.00,OVC,OVC,0.00,WeatherDisplay:10.37,2013-09-27 14:17:00,
2013-09-27 07:32:00,49.6,45.3,30.08,WSW,248,0.0,0.0,85,0.00,OVC,OVC,0.00,WeatherDisplay:10.37,2013-09-27 14:32:00,
2013-09-27 07:47:00,49.8,45.5,30.07,NW,307,0.0,0.0,85,0.00,OVC,OVC,0.00,WeatherDisplay:10.37,2013-09-27 14:47:00,
2013-09-27 08:02:00,50.4,46.0,30.07,North,6,0.0,0.0,85,0.00,-RA,-RA,0.00,WeatherDisplay:10.37,2013-09-27 15:02:00,
2013-09-27 08:17:00,50.9,46.6,30.07,ENE,62,0.0,0.0,85,0.02,-RA,-RA,0.02,WeatherDisplay:10.37,2013-09-27 15:17:00,
2013-09-27 08:32:00,51.6,47.3,30.07,North,10,0.0,0.0,85,0.00,-RA,-RA,0.02,WeatherDisplay:10.37,2013-09-27 15:32:00,
2013-09-27 08:47:00,52.2,47.8,30.05,NE,35,0.0,0.0,85,0.02,-RA,-RA,0.04,WeatherDisplay:10.37,2013-09-27 15:47:00,
2013-09-27 09:02:00,52.5,48.1,30.05,East,93,0.0,0.0,85,0.00,OVC,OVC,0.04,WeatherDisplay:10.37,2013-09-27 16:02:00,
2013-09-27 09:17:00,52.3,48.0,30.03,NE,41,0.0,0.0,85,0.02,RA,RA,0.07,WeatherDisplay:10.37,2013-09-27 16:17:00,
2013-09-27 09:32:00,52.3,48.0,30.02,NW,311,0.0,0.0,85,0.02,RA,RA,0.09,WeatherDisplay:10.37,2013-09-27 16:32:00,
2013-09-27 09:47:00,52.5,48.1,30.02,ESE,109,0.0,0.0,85,0.00,OVC,OVC,0.09,WeatherDisplay:10.37,2013-09-27 16:47:00,
2013-09-27 10:02:00,53.1,48.7,30.01,North,3,0.0,0.0,85,0.02,-RA,-RA,0.11,WeatherDisplay:10.37,2013-09-27 17:02:00,
2013-09-27 10:17:00,53.3,48.9,30.01,NE,35,0.0,0.0,85,0.00,-RA,-RA,0.11,WeatherDisplay:10.37,2013-09-27 17:17:00,
2013-09-27 10:32:00,53.4,49.0,30.00,NE,34,0.0,0.0,85,0.00,-RA,-RA,0.11,WeatherDisplay:10.37,2013-09-27 17:32:00,
2013-09-27 10:47:00,53.8,49.4,29.99,NE,37,0.0,0.0,85,0.02,-RA,-RA,0.13,WeatherDisplay:10.37,2013-09-27 17:47:00,
2013-09-27 11:02:00,54.0,49.6,29.99,NNE,33,0.0,0.0,85,0.02,-RA,-RA,0.16,WeatherDisplay:10.37,2013-09-27 18:02:00,
2013-09-27 11:17:00,54.1,49.7,29.99,NNE,20,0.0,0.0,85,0.07,-RA,-RA,0.22,WeatherDisplay:10.37,2013-09-27 18:17:00,
2013-09-27 11:32:00,54.1,49.7,29.99,NE,35,0.0,0.0,85,0.02,-RA,-RA,0.25,WeatherDisplay:10.37,2013-09-27 18:32:00,
2013-09-27 11:47:00,54.1,49.7,29.99,NNE,28,0.0,0.0,85,0.05,-RA,-RA,0.29,WeatherDisplay:10.37,2013-09-27 18:47:00,
2013-09-27 12:02:00,54.1,49.7,29.99,North,4,0.0,0.0,85,0.09,RA,RA,0.38,WeatherDisplay:10.37,2013-09-27 19:02:00,
2013-09-27 12:17:00,54.1,49.7,29.98,NNE,32,0.0,0.0,85,0.09,RA,RA,0.47,WeatherDisplay:10.37,2013-09-27 19:17:00,
2013-09-27 12:32:00,54.3,49.8,29.98,NNE,33,0.0,0.0,85,0.07,RA,RA,0.54,WeatherDisplay:10.37,2013-09-27 19:32:00,
2013-09-27 12:47:00,54.3,49.9,29.98,ENE,64,0.0,0.0,85,0.04,RA,RA,0.58,WeatherDisplay:10.37,2013-09-27 19:47:00,
2013-09-27 13:02:00,54.5,50.0,29.98,NE,54,0.0,0.0,85,0.07,-RA,-RA,0.65,WeatherDisplay:10.37,2013-09-27 20:02:00,
2013-09-27 13:17:00,54.6,50.2,29.98,ENE,60,0.0,0.0,85,0.00,-RA,-RA,0.65,WeatherDisplay:10.37,2013-09-27 20:17:00,
2013-09-27 13:32:00,54.9,50.5,29.97,East,86,0.0,0.0,85,0.02,-RA,-RA,0.67,WeatherDisplay:10.37,2013-09-27 20:32:00,
2013-09-27 13:47:00,55.1,50.7,29.97,NNE,25,0.0,0.0,85,0.02,-RA,-RA,0.70,WeatherDisplay:10.37,2013-09-27 20:47:00,
2013-09-27 14:02:00,55.3,50.9,29.96,North,2,0.0,0.0,85,0.02,-RA,-RA,0.72,WeatherDisplay:10.37,2013-09-27 21:02:00,
2013-09-27 14:17:00,55.8,51.4,29.97,NE,35,0.0,0.0,85,0.00,-RA,-RA,0.72,WeatherDisplay:10.37,2013-09-27 21:17:00,
2013-09-27 14:32:00,55.8,51.4,29.97,North,6,0.0,0.0,85,0.02,-RA,-RA,0.74,WeatherDisplay:10.37,2013-09-27 21:32:00,
2013-09-27 14:47:00,56.0,51.5,29.96,NE,40,0.0,0.0,85,0.00,-RA,-RA,0.74,WeatherDisplay:10.37,2013-09-27 21:47:00,
2013-09-27 15:02:00,56.5,52.0,29.96,North,355,0.0,0.0,85,0.00,-RA,-RA,0.74,WeatherDisplay:10.37,2013-09-27 22:02:00,
2013-09-27 15:17:00,56.5,52.0,29.97,NNE,30,0.0,0.0,85,0.02,-RA,-RA,0.76,WeatherDisplay:10.37,2013-09-27 22:17:00,
2013-09-27 15:32:00,56.8,52.4,29.97,NE,41,0.0,0.0,85,0.00,-RA,-RA,0.76,WeatherDisplay:10.37,2013-09-27 22:32:00,
2013-09-27 15:47:00,57.0,52.9,29.96,East,99,0.0,0.0,86,0.02,-RA,-RA,0.79,WeatherDisplay:10.37,2013-09-27 22:47:00,
2013-09-27 16:02:00,57.4,53.2,29.96,South,173,0.0,0.0,86,0.02,-RA,-RA,0.81,WeatherDisplay:10.37,2013-09-27 23:02:00,
2013-09-27 16:17:00,57.9,53.8,29.96,SW,221,0.0,0.0,86,0.02,-RA,-RA,0.83,WeatherDisplay:10.37,2013-09-27 23:17:00,
2013-09-27 16:32:00,58.2,54.1,29.96,SSW,213,0.0,0.0,86,0.02,-RA,-RA,0.85,WeatherDisplay:10.37,2013-09-27 23:32:00,
2013-09-27 16:47:00,58.5,54.3,29.96,SSW,209,0.0,0.0,86,0.05,-RA,-RA,0.90,WeatherDisplay:10.37,2013-09-27 23:47:00,
2013-09-27 17:02:00,58.6,54.5,29.96,SSW,204,0.0,0.0,86,0.02,-RA,-RA,0.92,WeatherDisplay:10.37,2013-09-28 00:02:00,
2013-09-27 17:17:00,58.6,54.5,29.96,SW,219,0.0,0.0,86,0.00,-RA,-RA,0.92,WeatherDisplay:10.37,2013-09-28 00:17:00,
2013-09-27 17:32:00,58.3,53.8,29.96,SW,231,0.0,0.0,85,0.05,-RA,-RA,0.97,WeatherDisplay:10.37,2013-09-28 00:32:00,
2013-09-27 17:47:00,58.3,53.8,29.96,SSW,213,0.0,0.0,85,0.00,-RA,-RA,0.97,WeatherDisplay:10.37,2013-09-28 00:47:00,
2013-09-27 18:02:00,58.1,53.6,29.94,SSW,202,0.0,0.0,85,0.00,OVC,OVC,0.97,WeatherDisplay:10.37,2013-09-28 01:02:00,
2013-09-27 18:17:00,58.1,53.6,29.94,North,9,0.0,0.0,85,0.00,OVC,OVC,0.97,WeatherDisplay:10.37,2013-09-28 01:17:00,
2013-09-27 18:32:00,57.9,53.4,29.95,West,275,0.0,0.0,85,0.04,RA,RA,1.01,WeatherDisplay:10.37,2013-09-28 01:32:00,
2013-09-27 18:47:00,57.6,53.2,29.94,SW,225,0.0,0.0,85,0.00,OVC,OVC,1.01,WeatherDisplay:10.37,2013-09-28 01:47:00,
2013-09-27 19:02:00,57.4,52.9,29.94,WSW,248,0.0,0.0,85,0.00,-RA,-RA,1.01,WeatherDisplay:10.37,2013-09-28 02:02:00,
2013-09-27 19:17:00,57.2,52.7,29.93,WSW,240,0.0,0.0,85,0.00,-RA,-RA,1.01,WeatherDisplay:10.37,2013-09-28 02:17:00,
2013-09-27 19:32:00,57.0,52.6,29.93,SSE,158,0.0,0.0,85,0.00,-RA,-RA,1.01,WeatherDisplay:10.37,2013-09-28 02:32:00,
2013-09-27 19:47:00,56.8,52.4,29.92,NE,45,0.0,0.0,85,0.00,-RA,-RA,1.01,WeatherDisplay:10.37,2013-09-28 02:47:00,
2013-09-27 20:02:00,56.5,52.0,29.92,NE,45,0.0,0.0,85,0.00,-RA,-RA,1.01,WeatherDisplay:10.37,2013-09-28 03:02:00,
2013-09-27 20:17:00,56.1,51.7,29.92,NE,49,0.0,0.0,85,0.00,-RA,-RA,1.01,WeatherDisplay:10.37,2013-09-28 03:17:00,
2013-09-27 20:32:00,56.1,51.7,29.92,ENE,68,0.0,0.0,85,0.00,-RA,-RA,1.01,WeatherDisplay:10.37,2013-09-28 03:32:00,
2013-09-27 20:47:00,56.1,51.7,29.92,North,356,0.0,0.0,85,0.00,-RA,-RA,1.01,WeatherDisplay:10.37,2013-09-28 03:47:00,
2013-09-27 21:02:00,56.1,51.7,29.91,North,11,0.0,0.0,85,0.02,RA,RA,1.03,WeatherDisplay:10.37,2013-09-28 04:02:00,
2013-09-27 21:17:00,56.1,51.7,29.91,East,94,0.0,0.0,85,0.02,RA,RA,1.05,WeatherDisplay:10.37,2013-09-28 04:17:00,
2013-09-27 21:32:00,56.1,51.7,29.91,ESE,109,0.0,0.0,85,0.02,RA,RA,1.08,WeatherDisplay:10.37,2013-09-28 04:32:00,
2013-09-27 21:47:00,56.1,51.7,29.90,ESE,108,0.0,0.0,85,0.02,RA,RA,1.10,WeatherDisplay:10.37,2013-09-28 04:47:00,
2013-09-27 22:02:00,56.1,51.7,29.90,SE,144,0.0,0.0,85,0.00,-RA,-RA,1.10,WeatherDisplay:10.37,2013-09-28 05:02:00,
2013-09-27 22:17:00,55.9,51.5,29.88,NE,38,0.0,0.0,85,0.00,-RA,-RA,1.10,WeatherDisplay:10.37,2013-09-28 05:17:00,
2013-09-27 22:32:00,56.1,51.7,29.89,North,351,0.0,0.0,85,0.00,-RA,-RA,1.10,WeatherDisplay:10.37,2013-09-28 05:32:00,
2013-09-27 22:47:00,56.1,51.7,29.88,North,351,0.0,0.0,85,0.02,-RA,-RA,1.12,WeatherDisplay:10.37,2013-09-28 05:47:00,
2013-09-27 23:02:00,56.1,51.7,29.88,North,5,0.0,0.0,85,0.02,-RA,-RA,1.14,WeatherDisplay:10.37,2013-09-28 06:02:00,
2013-09-27 23:17:00,56.1,52.0,29.88,WNW,293,0.0,0.0,86,0.04,-RA,-RA,1.19,WeatherDisplay:10.37,2013-09-28 06:17:00,
2013-09-27 23:32:00,56.0,51.8,29.87,SSE,151,0.0,0.0,86,0.02,-RA,-RA,1.21,WeatherDisplay:10.37,2013-09-28 06:32:00,
2013-09-27 23:47:00,56.0,51.8,29.87,SSE,158,0.0,0.0,86,0.02,-RA,-RA,1.23,WeatherDisplay:10.37,2013-09-28 06:47:00,